[[{"header":{"parameterUnit":"m.s-1","parameterCategory":1,"la1":30.2991,"la2":30.254,"lo1":-89.0895,"lo2":-89.0444,"dy":0.0017,"dx":0.0017,"nx":28,"ny":28,"refTime":"2024-02-20T09:00:00:Z","depth":0,"parameterNumber":2,"parameterNumberName":"U-component_of_WINDS"},"data":[0,0,0,0,0,0,0,0,0,0,0,0,0,0,0,0,0,0,0,0,0,0,0,0,0,0,0,0,0,0,0,0,0,0,0,0,0,0,0,0,0,0,0,0,0,0,0,0,0,0,0,0,0,0,0,0,0,0,-0.023,-0.023,0,-0.0298,-0.0298,-0.0299,-0.0389,-0.039,-0.0392,-0.0393,-0.0461,-0.0462,-0.0462,0,0,0,0,0,0,0,0,0,0,0,0,0,-0.0177,-0.0178,-0.0229,-0.023,-0.0231,-0.0297,-0.0298,-0.0299,-0.0389,-0.039,-0.0392,-0.0394,-0.0461,-0.0462,-0.0462,0,0,0,0,0,0,0,0,0,0,0,0,0,-0.0218,-0.0178,-0.0229,-0.0284,-0.0289,-0.0297,-0.0298,-0.03,-0.0388,-0.0391,-0.0393,-0.0395,-0.0461,-0.0462,-0.0462,-0.0422,0,0,-0.0464,-0.0464,0,0,0,0,0,0,0,0,-0.0215,-0.022,-0.0275,-0.028,-0.0286,-0.0337,-0.0305,-0.034,-0.0388,-0.0351,-0.0393,-0.0396,-0.0418,-0.0422,-0.043,-0.0425,-0.0428,-0.0464,-0.0465,-0.0465,-0.0465,0,0,0,0,0,0,0,-0.0212,-0.0217,-0.0256,-0.0276,-0.0283,-0.0305,-0.0313,-0.0312,-0.0371,-0.0354,-0.0361,-0.0368,-0.0422,-0.0429,-0.0432,-0.0429,-0.0464,-0.0465,-0.0465,-0.0465,-0.0395,-0.0393,0,0,0,0,0,0,-0.0202,-0.0214,-0.0254,-0.0258,-0.0256,-0.0304,-0.0313,-0.0318,-0.0371,-0.0381,-0.0366,-0.0372,-0.0427,-0.0432,-0.0435,-0.0392,-0.0465,-0.0466,-0.0466,-0.0398,-0.0395,-0.0393,0,0,0,0,0,0,-0.02,-0.0204,-0.0252,-0.0238,-0.0246,-0.0303,-0.0308,-0.0319,-0.0327,-0.038,-0.0391,-0.0363,-0.0429,-0.0434,-0.0425,-0.0395,-0.0466,-0.0466,-0.04,-0.0397,-0.0394,-0.0304,0,0,0,0,0,0,-0.0198,-0.0203,-0.0188,-0.0237,-0.0246,-0.0239,-0.0306,-0.0318,-0.0328,-0.0336,-0.038,-0.039,-0.0431,-0.0423,-0.0425,-0.0398,-0.0467,-0.0403,-0.0399,-0.0395,-0.031,-0.0298,-0.0288,0,0,0,0,0,-0.0196,-0.016,-0.0187,-0.0191,-0.0229,-0.0238,-0.0243,-0.0292,-0.0325,-0.031,-0.0345,-0.0388,-0.0399,-0.0422,-0.0425,-0.0397,-0.0405,-0.04,-0.0395,-0.0315,-0.03,-0.0288,0,0,0,0,0,0,-0.0104,-0.0167,-0.0198,-0.0176,-0.0201,-0.0253,-0.0236,-0.0275,-0.029,-0.0297,-0.0357,-0.0367,-0.035,-0.0373,-0.0397,-0.0361,-0.0409,-0.0404,-0.0346,-0.0333,-0.0322,-0.0317,-0.0467,0,0,0,0,0,-0.0082,-0.0084,-0.0139,-0.0114,-0.0125,-0.0178,-0.0184,-0.022,-0.0248,-0.0258,-0.0293,-0.0318,-0.0327,-0.0332,-0.0343,-0.0314,-0.0326,-0.0297,-0.0286,-0.0277,-0.0271,-0.0259,-0.0247,-0.0376,-0.0376,-0.0376,0,0,-0.0035,-0.0069,-0.0067,-0.0097,-0.012,-0.0121,-0.0186,-0.0184,-0.0186,-0.0258,-0.0251,-0.0277,-0.031,-0.0291,-0.0284,-0.0309,-0.0239,-0.027,-0.0262,-0.0262,-0.0253,-0.024,-0.0229,-0.0372,-0.0373,-0.0374,0,0,0.005,0.0024,0.0041,0.0018,-0.0017,-0.0053,-0.0049,-0.0095,-0.0115,-0.011,-0.0165,-0.0168,-0.0182,-0.0203,-0.0216,-0.0141,-0.0181,-0.0143,-0.0085,-0.0072,-0.0062,-0.0054,-0.0027,-0.0017,-0.0138,-0.0138,-0.0138,0,0.0113,0.0109,0.0055,0.006,0.0048,-0.0019,-0.0003,-0.0022,-0.0058,-0.0065,-0.0093,-0.0114,-0.014,-0.0128,-0.011,-0.0118,-0.0115,-0.0137,-0.0059,-0.0051,-0.0044,-0.0019,-0.0009,-0.0133,-0.0133,-0.0134,-0.0134,0,0.0189,0.0187,0.0204,0.017,0.016,0.0171,0.0117,0.0113,0.0078,0.0045,0.005,0.0016,-0.0004,-0.0004,-0.0038,0.0003,-0.0011,-0.0048,-0.0097,-0.0026,-0.0004,0.0005,-0.0126,-0.0128,-0.0129,-0.013,0,0,0.0332,0.0265,0.0272,0.0255,0.021,0.0208,0.0215,0.0194,0.0192,0.0168,0.0173,0.0161,0.0126,0.0111,0.0074,0.0085,0.0146,0.0046,0.0044,0.0066,0.0189,0.0217,0.0229,0.0118,0.0119,0.012,0.0191,0,0.0409,0.0417,0.0367,0.0389,0.0386,0.0321,0.0327,0.03,0.0269,0.0262,0.0227,0.022,0.0174,0.0165,0.0172,0.0137,0.017,0.0131,0.0121,0.0122,0.0133,0.0241,0.0272,0.034,0.02,0.0201,0.0202,0,0.05,0.048,0.0502,0.0455,0.0451,0.0458,0.0434,0.0428,0.0396,0.0372,0.0355,0.0311,0.0314,0.0267,0.027,0.0245,0.0237,0.0219,0.022,0.0218,0.0167,0.0242,0.0361,0.0372,0.0215,0.0214,0.0213,0,0.0602,0.0581,0.0591,0.0578,0.0523,0.0529,0.0506,0.0472,0.0462,0.0441,0.0434,0.0414,0.0404,0.0389,0.034,0.031,0.0349,0.0298,0.0329,0.0331,0.0342,0.0342,0.0462,0.0336,0.0336,0.0336,0.0336,0,0.0694,0.071,0.0636,0.0642,0.0657,0.0599,0.0616,0.0587,0.0556,0.0555,0.0497,0.0498,0.0433,0.0426,0.0388,0.0396,0.0391,0.0372,0.0362,0.0378,0.0381,0.0373,0.0367,0.0338,0.0338,0.0337,0.0337,0,0.0812,0.0763,0.0769,0.0716,0.0703,0.0716,0.067,0.0674,0.0638,0.0637,0.0634,0.0578,0.0566,0.0516,0.0493,0.0467,0.0488,0.0467,0.0499,0.0492,0.0527,0.0525,0.0647,0.066,0.0526,0.0528,0.0529,0,0.0874,0.0884,0.0832,0.0827,0.0806,0.0799,0.0789,0.0731,0.0722,0.0685,0.0693,0.0676,0.066,0.0644,0.0602,0.0583,0.0562,0.0606,0.0559,0.0574,0.0563,0.0563,0.0564,0.0617,0.0619,0.062,0.0621,0,0.099,0.0964,0.0951,0.093,0.0918,0.0899,0.0875,0.0874,0.081,0.0803,0.079,0.0778,0.0753,0.0737,0.0711,0.0687,0.0644,0.0636,0.0642,0.0659,0.0677,0.0668,0.0527,0.0634,0.0632,0.0632,0.0631,0.063,0.1081,0.1087,0.1051,0.1038,0.1014,0.0993,0.0993,0.0957,0.0945,0.092,0.0886,0.0878,0.0843,0.0803,0.0782,0.0774,0.075,0.0759,0.0762,0.0765,0.0773,0.0677,0.0769,0.0769,0.0768,0.0768,0.0768,0,0.1194,0.1167,0.1155,0.1124,0.1114,0.1072,0.1044,0.1038,0.1031,0.1002,0.0987,0.0971,0.0955,0.091,0.089,0.0892,0.0871,0.0888,0.0888,0.0883,0.0796,0.0792,0.0905,0.0905,0.0905,0.0905,0.0905,0.0905,0.1251,0.1259,0.1229,0.1224,0.1196,0.1187,0.1174,0.1154,0.1131,0.1116,0.1102,0.1072,0.1037,0.1013,0.0996,0.0983,0.0978,0.1002,0.0983,0.0902,0.0889,0.0877,0.0873,0.1001,0.1001,0.107,0.1071,0.1071]},{"header":{"parameterUnit":"m.s-1","parameterCategory":1,"la1":30.2991,"la2":30.254,"lo1":-89.0895,"lo2":-89.0444,"dy":0.0017,"dx":0.0017,"nx":28,"ny":28,"refTime":"2024-02-20T09:00:00:Z","depth":0,"parameterNumber":3,"parameterNumberName":"V-component_of_WINDS"},"data":[0,0,0,0,0,0,0,0,0,0,0,0,0,0,0,0,0,0,0,0,0,0,0,0,0,0,0,0,0,0,0,0,0,0,0,0,0,0,0,0,0,0,0,0,0,0,0,0,0,0,0,0,0,0,0,0,0,0,3.6848,3.685,0,3.7063,3.7066,3.7068,3.7127,3.7126,3.7125,3.7123,3.7341,3.7348,3.7355,0,0,0,0,0,0,0,0,0,0,0,0,0,3.6484,3.6491,3.6847,3.685,3.6853,3.7063,3.7066,3.7069,3.7127,3.7126,3.7124,3.7123,3.7339,3.7347,3.7355,0,0,0,0,0,0,0,0,0,0,0,0,0,3.6665,3.6493,3.6847,3.6907,3.6915,3.7062,3.7066,3.707,3.7128,3.7126,3.7124,3.7122,3.7336,3.7346,3.7356,3.7458,0,0,3.7388,3.7393,0,0,0,0,0,0,0,0,3.6655,3.6678,3.6896,3.6903,3.6912,3.7066,3.7018,3.72,3.7128,3.7047,3.7123,3.7121,3.7251,3.7268,3.7313,3.7468,3.7478,3.7389,3.7396,3.74,3.7403,0,0,0,0,0,0,0,3.6642,3.6669,3.6933,3.6899,3.6909,3.6923,3.6947,3.7052,3.7156,3.7054,3.7059,3.7083,3.7255,3.7303,3.7318,3.7481,3.7389,3.7398,3.7405,3.7409,3.7732,3.7734,0,0,0,0,0,0,3.6619,3.6658,3.6926,3.6939,3.6776,3.6931,3.6958,3.7019,3.7156,3.7175,3.7085,3.7085,3.7286,3.7306,3.7326,3.7455,3.74,3.741,3.7416,3.773,3.7733,3.7735,0,0,0,0,0,0,3.6611,3.6643,3.6917,3.68,3.6836,3.694,3.7008,3.7024,3.7072,3.7179,3.7198,3.7114,3.7285,3.7311,3.7426,3.7464,3.7414,3.7424,3.7727,3.7731,3.7734,3.7713,0,0,0,0,0,0,3.6601,3.664,3.6679,3.6801,3.6842,3.7013,3.701,3.703,3.709,3.7093,3.7212,3.723,3.7286,3.741,3.7436,3.7477,3.7432,3.7724,3.7729,3.7733,3.7711,3.7716,3.772,0,0,0,0,0,3.6588,3.6664,3.6681,3.6713,3.6895,3.7015,3.7039,3.7103,3.7093,3.7134,3.7203,3.7226,3.7455,3.7421,3.7451,3.7496,3.7722,3.7727,3.7732,3.7709,3.7715,3.772,0,0,0,0,0,0,3.6543,3.6681,3.6701,3.682,3.6906,3.7025,3.7079,3.7107,3.7196,3.7195,3.7269,3.7296,3.7405,3.7462,3.7421,3.7602,3.7589,3.76,3.7561,3.7567,3.7571,3.7555,3.7441,0,0,0,0,0,3.6547,3.6635,3.675,3.6843,3.6885,3.6975,3.7029,3.7071,3.7163,3.7199,3.7277,3.7364,3.7456,3.7515,3.7605,3.772,3.7747,3.7765,3.777,3.7773,3.7782,3.7848,3.7857,3.7752,3.7752,3.7752,0,0,3.6556,3.6643,3.6693,3.6837,3.6908,3.6996,3.7005,3.7097,3.7164,3.7213,3.7326,3.7386,3.7488,3.7603,3.7658,3.7654,3.7817,3.7779,3.7781,3.7789,3.7854,3.7864,3.7873,3.7756,3.7755,3.7755,0,0,3.6618,3.6692,3.6779,3.685,3.6959,3.7018,3.7039,3.7155,3.7197,3.7312,3.7351,3.7431,3.7587,3.7659,3.7716,3.7806,3.7831,3.7834,3.7856,3.7919,3.7928,3.7935,3.7968,3.7979,3.7842,3.7842,3.7842,0,3.6616,3.6751,3.6819,3.6911,3.6973,3.7023,3.7111,3.7177,3.7309,3.7351,3.7345,3.7544,3.7616,3.7749,3.7772,3.7816,3.7842,3.782,3.7921,3.793,3.7938,3.797,3.7982,3.7842,3.7842,3.7842,3.7842,0,3.6743,3.6836,3.6893,3.7021,3.709,3.7179,3.726,3.7321,3.7357,3.7417,3.7533,3.7622,3.7732,3.7767,3.7802,3.7905,3.79,3.7907,3.7895,3.7946,3.7978,3.7991,3.7841,3.7842,3.7842,3.7842,0,0,3.6782,3.6948,3.6968,3.7027,3.7151,3.7224,3.7316,3.7425,3.7476,3.7566,3.7644,3.7777,3.7784,3.7849,3.7893,3.7949,3.8016,3.7949,3.7953,3.7959,3.8136,3.813,3.8143,3.8033,3.8036,3.8038,3.8127,0,3.686,3.7027,3.7091,3.7227,3.7315,3.7364,3.7444,3.7529,3.7587,3.7669,3.7733,3.7826,3.7829,3.7869,3.7926,3.7995,3.8052,3.799,3.8106,3.811,3.808,3.8159,3.8153,3.8233,3.814,3.8142,3.8143,0,3.6974,3.7066,3.7211,3.7325,3.7365,3.7435,3.7541,3.7619,3.7716,3.7755,3.7828,3.7869,3.7966,3.7949,3.8084,3.804,3.8092,3.8133,3.8138,3.8151,3.813,3.8175,3.826,3.8272,3.8163,3.8162,3.816,0,3.6988,3.7149,3.7257,3.7306,3.7442,3.7491,3.755,3.7645,3.7707,3.7799,3.784,3.7941,3.7997,3.8074,3.8141,3.8122,3.8271,3.8259,3.8305,3.8304,3.8334,3.8331,3.8429,3.8367,3.8367,3.8367,3.8366,0,3.7069,3.7156,3.7265,3.7332,3.743,3.7503,3.7599,3.7661,3.7746,3.7825,3.7873,3.7946,3.8031,3.8114,3.8168,3.8272,3.8297,3.833,3.8343,3.8326,3.8322,3.8361,3.8357,3.837,3.8369,3.8369,3.8368,0,3.7102,3.7179,3.73,3.742,3.7452,3.7519,3.7622,3.7688,3.7749,3.7848,3.7876,3.7971,3.8072,3.8147,3.8278,3.8314,3.8425,3.8439,3.8393,3.84,3.8442,3.8437,3.8569,3.859,3.8513,3.8513,3.8514,0,3.7149,3.7217,3.7344,3.7401,3.746,3.7551,3.7615,3.7689,3.7754,3.787,3.7922,3.8027,3.8115,3.8274,3.8355,3.8455,3.8471,3.8511,3.8486,3.8467,3.8472,3.8467,3.8475,3.8513,3.8514,3.8514,3.8515,0,3.7223,3.7258,3.7349,3.7453,3.7528,3.7613,3.7699,3.7743,3.7833,3.7902,3.8007,3.8075,3.821,3.8313,3.8422,3.8482,3.8513,3.8522,3.8538,3.8521,3.8492,3.8509,3.8402,3.8518,3.8518,3.8518,3.8517,3.8517,3.7265,3.7328,3.7428,3.7528,3.76,3.768,3.7748,3.7819,3.7908,3.8024,3.8062,3.817,3.8267,3.8416,3.8477,3.8563,3.8562,3.8586,3.8592,3.8596,3.8595,3.8478,3.8583,3.8583,3.8583,3.8583,3.8583,0,3.7343,3.741,3.75,3.762,3.7698,3.7722,3.7819,3.7882,3.7978,3.8065,3.8151,3.8272,3.8373,3.8462,3.8567,3.8618,3.8635,3.8643,3.864,3.8654,3.859,3.8565,3.8628,3.8628,3.8628,3.8628,3.8628,3.8628,3.7392,3.7501,3.7547,3.7693,3.7759,3.7867,3.792,3.7994,3.8064,3.8197,3.8282,3.834,3.8428,3.854,3.8634,3.8657,3.8694,3.8698,3.8725,3.8663,3.8658,3.8653,3.863,3.8705,3.8705,3.8782,3.8783,3.8783]}]]